Location: Ch�tillon
(48.8024°N, 2.2935°E)
Time: 19:58:17
(UTC+00:00)

Gurwin Techsat 1B - Visible Passes

Search period start: 27 June 2022 00:00
Search period end: 07 July 2022 00:00
Orbit: 811 x 814 km, 98.8° (Epoch: 27 June)

Date Brightness Start Highest point End Pass type
(mag) Time Alt. Az. Time Alt. Az. Time Alt. Az.
27 Jun 9.7 01:53:35 10° NNE 01:58:33 39° E 02:03:29 10° SSE visible
28 Jun 10.3 01:31:02 10° NE 01:35:25 25° E 01:39:47 10° SSE visible
29 Jun 10.9 01:08:51 10° NE 01:12:12 17° E 01:15:32 10° SE visible
29 Jun 8.7 02:47:24 10° NNE 02:52:45 79° WNW 02:58:03 10° SSW visible
30 Jun 11.2 00:48:11 10° ENE 00:48:53 10° E 00:49:35 10° E visible
30 Jun 8.9 02:24:28 10° NNE 02:29:48 69° ESE 02:35:05 10° S visible
01 Jul 9.5 02:01:40 10° NNE 02:06:47 45° E 02:11:50 10° S visible
02 Jul 10.1 01:39:02 10° NE 01:43:40 29° E 01:48:15 10° SSE visible
03 Jul 10.7 01:16:42 10° NE 01:20:28 19° E 01:24:14 10° SE visible
03 Jul 8.7 02:55:36 10° N 03:00:54 69° WNW 03:06:11 10° SSW visible
04 Jul 11.0 00:55:05 10° ENE 00:57:12 12° E 00:59:18 10° ESE visible
04 Jul 8.7 02:32:37 10° NNE 02:37:59 79° ESE 02:43:18 10° SSW visible
05 Jul 9.3 02:09:46 10° NNE 02:14:59 52° E 02:20:09 10° S visible
06 Jul 9.9 01:47:04 10° NNE 01:51:54 34° E 01:56:41 10° SSE visible
